Home   Weather   Darlington   Past weeks
Flag for United Kingdom

Past Weather in Darlington, England, United Kingdom — Yesterday and Last 2 Weeks

Now
34 °F

Clear.


Feels Like: 30 °F
Forecast: 56 / 36 °F
Wind: 5 mph from Southwest

Location: Tees-Side

Current Time: Mar 26, 2019 at 12:26:03 am

Latest Report: Mar 25, 2019 at 9:50 pm


Visibility: 10 mi

Pressure: 30.54 "Hg

Humidity: 87%

Dew Point: 30 °F

Location of DarlingtonLocation

Past Weather in Darlington — Graph

°F

Darlington Temperature Yesterday

Maximum temperature yesterday: 52 °F (at 12:50 pm)
Minimum temperature yesterday: 34 °F (at 9:50 pm)
Average temperature yesterday: 44 °F

High & Low Weather Summary for the Past Weeks

 TemperatureHumidityPressure
High61 °F (Mar 21, 1:50 pm)100% (Mar 16, 6:50 am)30.54 "Hg (Mar 16, 6:50 am)
Low32 °F (Mar 24, 5:50 am)44% (Mar 23, 3:20 pm)29.03 "Hg (Mar 16, 4:20 pm)
Average47 °F71%29.94 "Hg
* Reported Mar 10 9:20 pm — Mar 25 9:50 pm, Darlington. Weather by CustomWeather, © 2019

Note: Actual official high and low records may vary slightly from our data, if they occured in-between our weather recording intervals... More about our weather records

Advertising

Darlington Weather History for the Previous 24 Hours

Scroll right to see more
 ConditionsComfort  
Time TempWeatherWind HumidityBarometerVisibility
9:50 pm
Mon, Mar 25
34 °FClear.5 mph87%30.54 "Hg10 mi
9:20 pm36 °FClear.6 mph87%30.54 "Hg10 mi
8:50 pm36 °FClear.3 mph81%30.54 "Hg10 mi
8:20 pm39 °FClear.No wind75%30.54 "Hg10 mi
7:50 pm39 °FClear.No wind75%30.54 "Hg10 mi
7:20 pm41 °FPassing clouds.No wind70%30.51 "HgN/A
6:50 pm43 °FPassing clouds.3 mph66%30.51 "HgN/A
5:50 pm46 °FPassing clouds.8 mph62%30.51 "HgN/A
5:20 pm46 °FPassing clouds.9 mph62%30.51 "HgN/A
4:50 pm48 °FPassing clouds.9 mph58%30.51 "HgN/A
4:20 pm48 °FPassing clouds.10 mph58%30.51 "HgN/A
3:50 pm50 °FPassing clouds.10 mph54%30.51 "HgN/A
3:20 pm50 °FPassing clouds.7 mph54%30.51 "HgN/A
2:50 pm50 °FPassing clouds.7 mph54%30.51 "HgN/A
1:50 pm50 °FPassing clouds.7 mph54%30.51 "HgN/A
1:20 pm52 °FPassing clouds.8 mph47%30.51 "HgN/A
12:50 pm52 °FPassing clouds.10 mph47%30.48 "HgN/A
11:50 am50 °FPassing clouds.12 mph50%30.51 "HgN/A
11:20 am48 °FPassing clouds.13 mph54%30.51 "HgN/A
10:50 am48 °FPassing clouds.16 mph54%30.51 "HgN/A
10:20 am48 °FPassing clouds.17 mph54%30.48 "HgN/A
8:50 am46 °FSunny.17 mph57%30.45 "Hg10 mi
8:20 am45 °FSunny.14 mph61%30.45 "Hg10 mi
7:50 am43 °FPassing clouds.10 mph66%30.45 "HgN/A
7:20 am39 °FPassing clouds.6 mph75%30.42 "HgN/A
6:50 am37 °FPassing clouds.6 mph75%30.42 "HgN/A
6:20 am39 °FPassing clouds.8 mph70%30.39 "HgN/A
5:50 am39 °FPassing clouds.8 mph70%30.39 "HgN/A
Weather by CustomWeather, © 2019

See weather overview